Location: ????????
(55.0808°N, 38.5463°E)
Time: 11:45:22
(UTC+00:00)

Cosmos 2297 - Visible Passes

Search period start: 14 July 2024 00:00
Search period end: 24 July 2024 00:00
Orbit: 835 x 858 km, 71.0° (Epoch: 13 July)

Date Brightness Start Highest point End Pass type
(mag) Time Alt. Az. Time Alt. Az. Time Alt. Az.
14 Jul 4.7 21:18:20 17° SSE 21:21:49 32° ESE 21:26:50 10° NE visible
14 Jul 4.1 23:00:14 11° SW 23:05:41 64° NW 23:11:23 10° NNE visible
15 Jul 4.7 21:04:51 18° SSE 21:08:14 31° ESE 21:13:12 10° NE visible
15 Jul 4.0 22:46:45 12° SW 22:52:05 65° NW 22:57:47 10° NNE visible
16 Jul 4.7 20:51:20 18° SSE 20:54:39 31° ESE 20:59:35 10° NE visible
16 Jul 4.0 22:33:13 12° SW 22:38:28 66° NW 22:44:11 10° NNE visible
17 Jul 4.7 20:37:46 18° SSE 20:41:03 30° ESE 20:45:58 10° NE visible
17 Jul 4.0 22:19:39 13° SW 22:24:51 67° NW 22:30:34 10° NNE visible
18 Jul 5.6 00:05:28 10° W 00:10:04 24° NNW 00:14:41 10° NNE visible
18 Jul 4.7 20:24:09 17° SSE 20:27:28 30° ESE 20:32:21 10° NE visible
18 Jul 4.0 22:06:02 13° SW 22:11:15 68° NW 22:16:58 10° NNE visible
18 Jul 5.6 23:51:49 10° W 23:56:27 24° NNW 00:01:04 10° NNE visible
19 Jul 4.7 20:10:31 17° SSE 20:13:53 29° ESE 20:18:43 10° NE visible
19 Jul 4.0 21:52:23 12° SW 21:57:39 69° NW 22:03:22 10° NNE visible
19 Jul 5.6 23:38:11 10° W 23:42:50 25° NNW 23:47:28 10° NNE visible
20 Jul 4.8 19:56:48 16° SSE 20:00:17 28° ESE 20:05:06 10° NE visible
20 Jul 4.0 21:38:40 12° SW 21:44:02 71° NW 21:49:46 10° NNE visible
20 Jul 5.7 23:24:32 10° W 23:29:13 25° NNW 23:33:52 10° NNE visible
21 Jul 4.8 19:43:02 15° SSE 19:46:42 28° ESE 19:51:28 10° NE visible
21 Jul 3.9 21:24:54 11° SW 21:30:26 72° NW 21:36:10 10° NNE visible
21 Jul 5.7 23:10:54 10° W 23:15:35 25° NNW 23:20:16 10° NNE visible
22 Jul 4.8 19:29:12 13° SSE 19:33:07 27° ESE 19:37:51 10° NE visible
22 Jul 3.9 21:11:06 10° SW 21:16:50 73° NW 21:22:33 10° NNE visible
22 Jul 5.7 22:57:16 10° W 23:01:57 25° NNW 23:06:39 10° NNE visible
23 Jul 4.8 19:15:16 12° SSE 19:19:32 27° ESE 19:24:14 10° NE visible
23 Jul 3.9 20:57:30 10° SW 21:03:13 74° NW 21:08:57 10° NNE visible
23 Jul 5.7 22:43:36 10° W 22:48:20 26° NNW 22:53:03 10° NNE visible
